Fort Myers, FL

10:00 AM EDT on August 27, 2016 (GMT -0400)
Page

Weather History for KFMY - October, 2011

Change the Weather History Date:

Tuesday, October 11, 2011

  Actual Average Record
Temperature  
Mean Temperature 81 °F 79 °F  
Max Temperature 87 °F 88 °F 93 °F (1959)
Min Temperature 75 °F 71 °F 56 °F (1903)
Degree Days  
Heating Degree Days 0 0  
Month to date heating degree days 0 0  
Since 1 July heating degree days 0 0  
Cooling Degree Days 16 14  
Month to date cooling degree days 147 165  
Year to date cooling degree days 3667 3411  
Growing Degree Days 30 (Base 50)    
Moisture  
Dew Point 73 °F    
Average Humidity 79    
Maximum Humidity 94    
Minimum Humidity 61    
Precipitation  
Precipitation T in 0.09 in 2.21 in (1936)
Month to date precipitation 3.74 1.35  
Year to date precipitation 58.18 50.73  
Sea Level Pressure  
Sea Level Pressure 29.82 in    
Wind  
Wind Speed 5 mph (SSW)    
Max Wind Speed 13 mph    
Max Gust Speed 17 mph    
Visibility 10 miles    
Events Rain    
T = Trace of Precipitation, MM = Missing Value Source: NWS Daily Summary

Daily Weather History Graph

Daily Weather History Graph

Search for Another Location

Airport or City:

Trip Planner

Search our weather history database for the weather conditions in past years. The results will help you decide how hot, cold, wet, or windy it might be!

Date:

Astronomy

Oct. 11, 2011 Rise Set
Actual Time 7:24 AM EDT 7:03 PM EDT
Civil Twilight 7:01 AM EDT 7:26 PM EDT
Nautical Twilight 6:34 AM EDT 7:53 PM EDT
Astronomical Twilight 6:07 AM EDT 8:20 PM EDT
Moon 6:40 PM EDT (10/11) 6:58 AM EDT (10/11)
Length of Visible Light 12h 25m
Length of Day
11h 38m
Full, 100% of the Moon is Illuminated
Oct 11
Full
Oct 11
Full
Oct 19
Last Quarter
Oct 26
New
Nov 2
First Quarter

Hourly Weather History & Observations

Time (EDT) Temp. Heat Index Dew Point Humidity Pressure Visibility Wind Dir Wind Speed Gust Speed Precip Events Conditions
12:53 AM 77.0 °F - 72.0 °F 84% 29.80 in 10.0 mi Calm Calm - N/A   Clear
1:53 AM 77.0 °F - 73.0 °F 88% 29.79 in 10.0 mi SE 4.6 mph - N/A   Scattered Clouds
2:53 AM 77.0 °F - 73.0 °F 88% 29.78 in 10.0 mi Calm Calm - 0.00 in Rain Light Rain
3:53 AM 75.9 °F - 73.0 °F 91% 29.77 in 10.0 mi Calm Calm - 0.00 in   Scattered Clouds
4:53 AM 75.9 °F - 73.0 °F 91% 29.78 in 10.0 mi SSE 4.6 mph - N/A   Scattered Clouds
6:53 AM 75.0 °F - 73.0 °F 94% 29.80 in 10.0 mi SSE 3.5 mph - N/A   Clear
7:53 AM 75.9 °F - 73.0 °F 91% 29.81 in 10.0 mi SSE 4.6 mph - N/A   Clear
8:53 AM 80.1 °F 84.5 °F 73.9 °F 81% 29.83 in 10.0 mi South 5.8 mph - N/A   Partly Cloudy
10:53 AM 82.9 °F 88.0 °F 72.0 °F 69% 29.85 in 10.0 mi SW 9.2 mph - N/A   Partly Cloudy
12:01 PM 80.6 °F 85.4 °F 73.4 °F 79% 29.85 in 10.0 mi West 5.8 mph - 0.00 in Rain Light Rain
12:53 PM 84.0 °F 91.2 °F 73.9 °F 72% 29.84 in 10.0 mi SW 6.9 mph - 0.00 in   Mostly Cloudy
1:53 PM 86.0 °F 92.2 °F 72.0 °F 63% 29.82 in 10.0 mi WSW 8.1 mph - N/A   Scattered Clouds
2:53 PM 86.0 °F 91.5 °F 71.1 °F 61% 29.81 in 10.0 mi WSW 6.9 mph - N/A   Mostly Cloudy
4:53 PM 86.0 °F 91.5 °F 71.1 °F 61% 29.79 in 10.0 mi WSW 9.2 mph - N/A   Partly Cloudy
5:53 PM 84.9 °F 90.1 °F 71.1 °F 63% 29.80 in 10.0 mi WSW 8.1 mph - N/A   Partly Cloudy
6:53 PM 82.0 °F 86.7 °F 72.0 °F 71% 29.81 in 10.0 mi SW 3.5 mph - N/A   Clear
7:53 PM 81.0 °F 85.2 °F 72.0 °F 74% 29.82 in 10.0 mi SSW 4.6 mph - N/A   Partly Cloudy
8:53 PM 80.1 °F 83.8 °F 72.0 °F 76% 29.84 in 10.0 mi SSW 3.5 mph - N/A   Clear
9:53 PM 79.0 °F - 73.0 °F 82% 29.85 in 10.0 mi Calm Calm - N/A   Clear
10:53 PM 78.1 °F - 73.9 °F 87% 29.86 in 10.0 mi SSE 3.5 mph - N/A   Clear
11:53 PM 77.0 °F - 73.9 °F 90% 29.86 in 10.0 mi Calm Calm - N/A   Clear